Temp
-6 -6 -5 -6 -6 -7 -6 -6 -6 -6 -5 -6 -5 -6 -7 -7 -6 -6 -6 -6 -6 -6 -6 -6 -6 -7 -7 -7 -7 -7 -7 -7 -7 -7 -8 -8 -8 -8 -8 -8 -8 -8 -8 -8 -8 -8 -8 -8 -8
-7 -6 -6 -7 -7 -6 -6 -6 -6 -5 -5 -6 -6 -6 -7 -7 -7 -6 -6 -6 -6 -6 -6 -6 -7 -7 -7 -7 -7 -7 -7 -7 -7 -8 -8 -8 -8 -8 -8 -8 -8 -8 -8 -8 -8 -8 -8 -8 -8
-7 -7 -7 -8 -8 -8 -7 -5 -5 -5 -5 -5 -6 -6 -6 -7 -7 -7 -6 -6 -6 -7 -7 -7 -7 -7 -7 -7 -8 -8 -8 -8 -8 -8 -9 -9 -8 -8 -8 -8 -8 -8 -8 -8 -8 -8 -8 -8 -8
-6 -6 -6 -8 -9 -8 -7 -6 -6 -5 -5 -5 -6 -6 -6 -6 -6 -7 -7 -7 -7 -7 -7 -7 -7 -7 -8 -8 -8 -8 -8 -8 -8 -8 -9 -9 -9 -9 -9 -9 -9 -8 -8 -8 -8 -8 -8 -9 -8
-7 -7 -6 -6 -6 -8 -6 -6 -7 -6 -5 -5 -5 -7 -7 -6 -6 -7 -7 -7 -7 -7 -7 -7 -7 -7 -7 -8 -8 -8 -8 -9 -9 -9 -9 -9 -9 -9 -9 -9 -9 -9 -8 -9 -8 -8 -8 -9 -8
-7 -7 -7 -7 -7 -7 -7 -7 -8 -6 -6 -5 -5 -6 -6 -6 -6 -7 -7 -7 -7 -7 -8 -8 -8 -8 -8 -8 -8 -9 -9 -9 -9 -9 -9 -9 -9 -9 -9 -10 -10 -9 -9 -9 -9 -8 -8 -9 -9
-7 -8 -7 -7 -7 -8 -7 -8 -7 -7 -6 -6 -5 -6 -7 -6 -6 -6 -7 -7 -7 -7 -7 -7 -7 -8 -8 -8 -8 -8 -8 -9 -9 -9 -9 -9 -9 -9 -9 -10 -9 -10 -9 -9 -9 -9 -9 -9 -9
-7 -7 -7 -7 -7 -7 -7 -7 -7 -7 -7 -6 -6 -5 -7 -7 -6 -7 -7 -7 -7 -8 -8 -8 -9 -9 -8 -8 -8 -8 -8 -9 -9 -9 -9 -9 -9 -9 -10 -10 -10 -10 -9 -9 -9 -9 -9 -9 -9
-7 -7 -7 -7 -7 -7 -7 -7 -8 -8 -7 -7 -6 -6 -6 -7 -7 -7 -8 -8 -8 -8 -8 -8 -9 -9 -8 -8 -8 -8 -9 -9 -9 -8 -9 -9 -9 -9 -9 -9 -9 -10 -10 -10 -10 -9 -9 -9 -9
-7 -7 -7 -7 -8 -7 -7 -7 -8 -7 -6 -7 -6 -6 -6 -7 -7 -7 -8 -8 -9 -9 -9 -9 -9 -8 -8 -8 -8 -8 -8 -8 -8 -8 -8 -9 -8 -9 -9 -9 -9 -10 -10 -9 -10 -9 -9 -9 -9
-7 -7 -6 -8 -8 -7 -7 -8 -8 -7 -6 -6 -6 -6 -7 -7 -8 -8 -9 -9 -9 -9 -9 -9 -8 -8 -8 -8 -8 -8 -8 -8 -8 -8 -8 -8 -8 -9 -9 -9 -9 -9 -9 -9 -9 -9 -9 -9 -8
-7 -8 -6 -8 -8 -7 -7 -7 -7 -6 -6 -6 -6 -6 -7 -7 -8 -8 -8 -9 -9 -8 -8 -8 -8 -8 -7 -7 -7 -7 -7 -8 -8 -8 -8 -8 -9 -8 -8 -9 -9 -8 -8 -9 -8 -8 -8 -8 -8
-7 -8 -7 -8 -6 -6 -7 -6 -6 -5 -5 -5 -6 -6 -7 -7 -8 -8 -8 -8 -8 -8 -8 -7 -7 -7 -7 -7 -7 -7 -8 -8 -8 -8 -8 -8 -8 -8 -8 -8 -8 -7 -7 -8 -8 -8 -8 -8 -8
-8 -8 -7 -8 -8 -6 -6 -6 -6 -5 -5 -5 -6 -6 -6 -6 -7 -7 -7 -7 -7 -7 -7 -7 -7 -7 -7 -7 -7 -8 -7 -7 -7 -8 -8 -7 -8 -8 -8 -8 -8 -7 -7 -7 -7 -8 -8 -8 -8
-8 -7 -7 -8 -8 -8 -7 -7 -6 -5 -5 -6 -6 -6 -6 -6 -6 -7 -7 -7 -6 -7 -7 -7 -7 -7 -6 -7 -7 -7 -7 -7 -7 -7 -7 -7 -7 -7 -7 -8 -7 -7 -7 -7 -7 -7 -7 -7 -8
-6 -7 -7 -8 -8 -8 -7 -7 -6 -6 -5 -6 -6 -5 -5 -6 -6 -6 -6 -6 -6 -6 -6 -6 -6 -7 -6 -7 -7 -7 -7 -7 -7 -8 -7 -8 -8 -7 -7 -7 -7 -7 -7 -7 -7 -7 -7 -7 -7
-5 -5 -7 -7 -8 -7 -7 -7 -7 -6 -6 -6 -6 -6 -5 -5 -6 -6 -6 -7 -6 -7 -7 -7 -7 -7 -7 -7 -7 -7 -7 -7 -7 -7 -7 -7 -7 -7 -7 -7 -7 -7 -7 -7 -7 -7 -8 -8 -8
-4 -5 -6 -7 -6 -7 -7 -7 -7 -6 -6 -6 -6 -5 -6 -6 -6 -6 -6 -6 -7 -7 -7 -7 -7 -7 -7 -7 -7 -7 -7 -7 -7 -7 -7 -7 -7 -7 -7 -7 -7 -7 -7 -7 -7 -7 -8 -8 -8
-6 -7 -6 -7 -7 -7 -7 -7 -7 -7 -7 -5 -6 -6 -5 -5 -6 -6 -6 -6 -6 -7 -7 -7 -7 -7 -7 -7 -7 -7 -7 -7 -7 -7 -7 -7 -7 -7 -7 -7 -7 -8 -8 -7 -7 -7 -8 -8 -8
-6 -7 -7 -8 -7 -8 -7 -8 -7 -7 -7 -6 -7 -7 -7 -6 -6 -6 -6 -6 -6 -7 -7 -7 -7 -7 -7 -7 -7 -7 -7 -7 -7 -7 -7 -7 -7 -7 -7 -7 -8 -8 -7 -7 -7 -8 -8 -8 -8
-7 -7 -7 -7 -8 -8 -8 -8 -7 -7 -7 -7 -8 -7 -7 -6 -6 -6 -6 -6 -6 -7 -7 -7 -7 -7 -7 -7 -7 -7 -7 -7 -7 -7 -7 -7 -7 -7 -7 -7 -7 -7 -7 -8 -8 -8 -8 -8 -8
-7 -7 -7 -8 -8 -7 -7 -7 -7 -7 -7 -7 -8 -7 -6 -7 -6 -6 -6 -7 -7 -7 -7 -7 -7 -7 -7 -7 -7 -7 -7 -7 -7 -7 -7 -7 -7 -7 -7 -7 -7 -7 -7 -8 -8 -8 -8 -8 -8
-7 -8 -8 -8 -8 -7 -7 -7 -7 -7 -7 -7 -7 -7 -7 -7 -7 -7 -7 -7 -7 -7 -7 -7 -7 -7 -7 -7 -7 -7 -7 -7 -8 -7 -7 -7 -7 -7 -7 -7 -7 -7 -7 -8 -8 -8 -8 -8 -8
-7 -8 -8 -8 -7 -8 -7 -7 -7 -6 -7 -7 -7 -7 -8 -8 -7 -7 -7 -7 -7 -7 -7 -7 -7 -7 -7 -7 -7 -8 -7 -8 -8 -8 -7 -7 -8 -8 -8 -8 -8 -7 -8 -8 -8 -8 -8 -9 -9
-7 -8 -8 -7 -7 -7 -7 -7 -6 -6 -7 -7 -7 -7 -7 -8 -7 -8 -8 -8 -8 -8 -8 -7 -7 -7 -7 -7 -7 -8 -8 -9 -8 -8 -8 -8 -8 -8 -8 -8 -8 -8 -8 -8 -8 -8 -9 -9 -9
-7 -8 -8 -8 -7 -7 -7 -7 -4 -7 -7 -7 -7 -7 -7 -8 -8 -8 -8 -8 -8 -8 -8 -7 -7 -8 -8 -7 -8 -8 -8 -8 -8 -8 -8 -8 -8 -8 -8 -8 -8 -8 -8 -8 -9 -9 -9 -9 -9
-8 -7 -7 -7 -8 -8 -7 -7 -7 -7 -7 -7 -7 -7 -7 -7 -8 -8 -8 -9 -9 -9 -9 -8 -8 -8 -8 -8 -8 -8 -8 -8 -8 -8 -8 -8 -8 -8 -8 -8 -8 -8 -8 -9 -9 -9 -9 -9 -9
-8 -7 -8 -7 -7 -7 -7 -7 -7 -7 -7 -7 -7 -7 -7 -8 -8 -8 -7 -8 -9 -8 -8 -8 -8 -8 -8 -8 -8 -8 -8 -8 -8 -8 -8 -8 -8 -8 -8 -8 -8 -9 -9 -9 -9 -9 -9 -9 -9
-7 -7 -7 -7 -7 -7 -6 -6 -7 -7 -7 -7 -7 -7 -8 -8 -8 -8 -7 -8 -8 -9 -9 -8 -8 -8 -8 -8 -8 -8 -9 -9 -9 -8 -8 -8 -8 -9 -9 -9 -8 -9 -9 -9 -9 -9 -9 -9 -9
-8 -7 -7 -8 -6 -7 -7 -6 -7 -7 -7 -7 -7 -8 -8 -8 -7 -8 -8 -8 -8 -8 -8 -8 -8 -8 -9 -9 -9 -9 -9 -9 -9 -9 -9 -8 -9 -9 -9 -9 -9 -9 -9 -9 -9 -9 -9 -10 -10
Height
5884 5882 5881 5881 5885 5883 5884 5884 5881 5883 5884 5884 5884 5885 5885 5887 5888 5891 5890 5889 5889 5891 5891 5892 5894 5896 5897 5898 5898 5899 5899 5900 5901 5899 5901 5902 5901 5901 5901 5900 5901 5901 5899 5899 5899 5898 5898 5898 5899
5888 5885 5885 5884 5888 5888 5890 5886 5886 5886 5885 5886 5885 5886 5887 5888 5888 5891 5893 5893 5892 5892 5893 5896 5897 5899 5901 5901 5901 5900 5901 5901 5900 5902 5902 5903 5903 5902 5901 5901 5902 5901 5900 5900 5899 5898 5899 5899 5899
5893 5890 5889 5887 5887 5887 5891 5889 5890 5891 5891 5889 5889 5889 5889 5890 5890 5892 5894 5895 5894 5895 5896 5898 5899 5901 5902 5901 5901 5901 5901 5901 5903 5903 5902 5902 5903 5902 5901 5902 5902 5900 5900 5900 5899 5898 5899 5899 5900
5895 5896 5896 5893 5890 5889 5889 5891 5892 5893 5894 5893 5891 5893 5893 5893 5891 5894 5896 5896 5896 5897 5899 5899 5900 5901 5903 5903 5903 5902 5902 5903 5904 5903 5903 5903 5904 5902 5902 5903 5903 5902 5901 5900 5900 5899 5899 5900 5901
5896 5897 5897 5895 5892 5891 5891 5892 5893 5895 5895 5895 5894 5896 5895 5896 5894 5895 5897 5899 5898 5899 5900 5901 5902 5903 5904 5904 5904 5904 5904 5905 5905 5905 5904 5904 5903 5903 5904 5904 5902 5902 5901 5900 5900 5900 5900 5900 5900
5897 5899 5898 5899 5894 5892 5893 5892 5894 5896 5898 5897 5896 5897 5898 5899 5897 5898 5899 5900 5901 5901 5902 5902 5903 5904 5905 5906 5905 5905 5906 5906 5906 5906 5905 5905 5905 5905 5904 5903 5903 5903 5902 5902 5901 5900 5900 5899 5900
5899 5901 5901 5899 5899 5896 5896 5896 5895 5897 5898 5898 5897 5897 5900 5900 5900 5899 5901 5901 5902 5903 5903 5904 5906 5907 5908 5907 5907 5907 5907 5907 5907 5907 5906 5906 5905 5905 5904 5903 5902 5903 5903 5901 5900 5901 5900 5898 5898
5902 5903 5903 5901 5901 5901 5899 5898 5899 5902 5902 5901 5900 5898 5900 5901 5901 5901 5902 5903 5904 5904 5905 5906 5907 5908 5909 5909 5908 5909 5909 5908 5907 5907 5907 5906 5906 5904 5904 5902 5902 5902 5902 5901 5900 5900 5900 5898 5897
5903 5905 5904 5903 5902 5904 5902 5900 5902 5904 5904 5903 5903 5901 5901 5902 5902 5903 5903 5905 5905 5905 5906 5907 5908 5909 5909 5910 5910 5910 5910 5909 5908 5908 5907 5906 5905 5905 5904 5902 5902 5901 5900 5900 5899 5899 5898 5897 5896
5906 5907 5904 5905 5903 5905 5906 5904 5905 5906 5905 5905 5905 5904 5903 5904 5904 5904 5904 5905 5905 5906 5907 5909 5910 5910 5911 5912 5912 5911 5911 5911 5910 5909 5908 5907 5906 5905 5904 5903 5901 5901 5900 5899 5898 5898 5897 5895 5894
5906 5906 5906 5904 5903 5906 5907 5907 5906 5907 5906 5907 5907 5907 5906 5906 5906 5906 5906 5906 5907 5907 5908 5909 5911 5911 5912 5912 5913 5912 5912 5911 5910 5909 5908 5908 5907 5906 5904 5902 5900 5900 5900 5898 5897 5896 5895 5894 5893
5906 5906 5907 5905 5905 5906 5907 5908 5909 5909 5908 5908 5908 5908 5906 5907 5907 5908 5908 5907 5908 5909 5910 5910 5911 5912 5913 5914 5914 5913 5913 5912 5910 5908 5908 5907 5906 5905 5904 5903 5901 5900 5899 5898 5896 5894 5893 5893 5891
5905 5905 5905 5904 5906 5907 5910 5911 5912 5911 5910 5909 5908 5908 5908 5908 5908 5908 5908 5909 5909 5910 5911 5911 5912 5913 5914 5915 5914 5913 5912 5912 5911 5909 5908 5907 5907 5906 5904 5903 5901 5900 5898 5897 5895 5892 5892 5891 5890
5903 5903 5904 5906 5905 5906 5909 5910 5911 5912 5912 5910 5910 5910 5910 5910 5910 5910 5911 5911 5911 5911 5912 5913 5913 5913 5914 5915 5914 5914 5913 5912 5911 5910 5908 5907 5906 5906 5905 5904 5903 5901 5899 5897 5895 5893 5892 5890 5888
5901 5902 5905 5906 5906 5909 5910 5911 5911 5912 5912 5912 5912 5912 5912 5912 5913 5913 5912 5913 5913 5913 5913 5913 5914 5914 5915 5915 5915 5914 5913 5913 5912 5910 5908 5907 5906 5906 5906 5904 5903 5902 5900 5898 5896 5894 5891 5889 5888
5898 5900 5907 5907 5909 5912 5914 5913 5913 5913 5912 5912 5914 5914 5914 5915 5914 5913 5914 5914 5913 5913 5914 5914 5914 5915 5915 5915 5916 5914 5912 5912 5911 5910 5909 5908 5908 5907 5905 5904 5903 5902 5900 5898 5896 5893 5891 5889 5887
5898 5901 5905 5908 5911 5911 5913 5914 5913 5912 5911 5911 5912 5913 5914 5913 5913 5913 5913 5913 5913 5913 5914 5915 5916 5915 5915 5916 5915 5915 5915 5913 5912 5911 5910 5909 5907 5906 5904 5903 5901 5899 5898 5895 5894 5892 5890 5888 5886
5897 5898 5905 5910 5911 5911 5911 5914 5913 5912 5912 5911 5911 5911 5912 5915 5913 5911 5912 5913 5912 5912 5913 5914 5914 5915 5915 5915 5915 5915 5913 5913 5912 5911 5909 5908 5907 5905 5902 5901 5898 5897 5895 5894 5892 5890 5888 5886 5883
5896 5898 5905 5908 5909 5910 5912 5913 5913 5911 5911 5909 5910 5909 5910 5911 5912 5911 5911 5911 5912 5912 5912 5913 5913 5914 5915 5915 5914 5913 5911 5911 5911 5910 5909 5907 5905 5904 5902 5899 5897 5895 5893 5892 5889 5887 5886 5885 5882
5892 5894 5899 5903 5907 5908 5910 5911 5913 5911 5910 5909 5909 5909 5910 5910 5911 5912 5912 5910 5910 5911 5911 5912 5912 5913 5913 5913 5912 5911 5910 5909 5908 5907 5905 5904 5902 5900 5898 5897 5895 5893 5892 5889 5887 5884 5882 5880 5879
5891 5895 5900 5902 5902 5905 5906 5907 5911 5910 5911 5909 5910 5911 5911 5911 5911 5911 5912 5910 5909 5910 5910 5912 5912 5911 5910 5911 5910 5909 5908 5907 5905 5904 5902 5900 5899 5897 5895 5893 5891 5889 5886 5885 5883 5881 5878 5876 5874
5890 5895 5899 5898 5897 5899 5903 5903 5907 5909 5909 5910 5909 5909 5908 5908 5908 5909 5909 5909 5909 5908 5908 5909 5908 5908 5908 5908 5908 5907 5906 5904 5902 5901 5898 5897 5895 5894 5891 5888 5885 5883 5882 5880 5878 5877 5874 5871 5869
5890 5894 5896 5896 5894 5894 5896 5898 5904 5905 5906 5908 5908 5907 5906 5904 5904 5905 5905 5905 5907 5907 5907 5906 5905 5904 5905 5905 5904 5903 5901 5900 5898 5897 5895 5893 5891 5889 5887 5884 5881 5879 5877 5875 5872 5871 5868 5865 5862
5889 5888 5889 5889 5889 5884 5892 5895 5896 5900 5903 5905 5905 5904 5904 5902 5901 5900 5899 5900 5902 5904 5903 5902 5901 5901 5901 5902 5901 5899 5897 5896 5895 5893 5891 5889 5887 5884 5881 5879 5877 5873 5871 5869 5867 5865 5863 5860 5857
5878 5882 5882 5882 5880 5879 5888 5889 5892 5897 5898 5901 5902 5901 5901 5899 5896 5896 5897 5898 5898 5900 5899 5898 5898 5898 5898 5897 5897 5896 5894 5892 5890 5888 5885 5883 5881 5878 5875 5872 5871 5869 5867 5865 5862 5860 5858 5855 5852
5871 5876 5876 5876 5877 5880 5881 5878 5889 5893 5894 5897 5898 5898 5897 5896 5894 5893 5893 5894 5894 5893 5893 5894 5895 5895 5893 5891 5891 5890 5889 5889 5886 5883 5880 5878 5875 5872 5870 5868 5867 5865 5862 5860 5857 5854 5851 5847 5844
5864 5865 5874 5872 5872 5874 5875 5877 5882 5887 5890 5892 5894 5894 5894 5892 5891 5893 5891 5889 5889 5888 5888 5890 5890 5889 5888 5886 5884 5884 5884 5882 5881 5878 5875 5872 5870 5868 5866 5863 5861 5859 5856 5852 5849 5846 5843 5839 5836
5853 5864 5864 5864 5865 5866 5869 5872 5876 5882 5886 5886 5887 5889 5889 5889 5889 5889 5887 5885 5885 5885 5885 5886 5885 5884 5883 5881 5879 5879 5878 5876 5873 5871 5869 5867 5865 5864 5861 5857 5855 5853 5849 5846 5843 5840 5837 5834 5829
5847 5850 5855 5859 5860 5860 5863 5865 5873 5875 5880 5881 5884 5885 5886 5886 5886 5885 5885 5882 5882 5883 5883 5881 5880 5878 5877 5876 5875 5875 5873 5869 5866 5864 5862 5861 5860 5857 5854 5851 5848 5845 5841 5839 5836 5833 5829 5825 5820
5840 5845 5850 5850 5853 5855 5857 5861 5868 5872 5873 5876 5879 5881 5882 5882 5883 5881 5881 5881 5879 5880 5880 5878 5876 5873 5872 5870 5869 5868 5866 5861 5859 5857 5856 5856 5855 5851 5847 5844 5840 5837 5833 5831 5828 5824 5820 5816 5811
Wind_Speed
20 22 22 30 27 24 17 17 19 16 13 11 17 20 21 18 20 17 15 19 18 19 19 19 19 17 14 12 12 13 13 12 12 13 13 14 14 13 14 16 16 14 12 9 8 9 9 7 5
16 20 21 27 24 21 17 16 16 16 20 17 16 18 19 19 21 18 16 18 21 20 20 19 18 16 14 14 15 16 16 16 16 15 15 14 13 13 14 14 14 16 16 13 10 8 7 6 5
16 20 27 25 26 24 18 18 16 13 13 16 15 16 19 19 20 17 17 17 20 20 19 17 17 15 15 16 17 17 17 18 16 16 15 14 14 15 15 14 14 15 14 13 12 10 7 5 4
18 19 20 28 24 21 19 16 17 11 8 11 16 12 14 17 21 19 16 16 17 16 15 16 14 14 15 17 17 17 16 15 13 13 11 11 11 12 11 10 10 11 10 9 9 10 8 5 1
14 15 28 20 20 23 18 17 18 11 6 4 11 11 15 15 20 19 17 14 16 16 14 15 14 13 12 12 13 13 12 11 9 8 8 10 10 10 8 7 7 8 8 9 9 8 7 5 1
10 12 20 26 21 22 19 18 14 10 8 4 6 9 9 7 15 16 16 14 13 15 15 15 15 14 12 12 14 14 13 13 12 12 11 12 11 10 7 7 8 8 8 7 8 7 6 5 4
9 5 13 25 24 26 23 22 16 11 9 7 3 10 7 5 7 12 12 10 9 9 8 7 8 9 10 12 11 10 10 10 9 9 9 8 9 8 6 5 7 4 3 4 5 6 5 5 3
11 7 9 17 23 21 20 20 21 13 8 5 6 8 8 5 6 9 10 10 9 8 7 8 9 8 7 8 7 6 5 5 6 9 8 7 8 10 6 5 5 6 4 3 4 6 5 6 6
12 10 12 16 20 23 16 17 15 14 8 5 4 4 8 6 5 7 9 9 8 6 5 9 11 11 10 9 9 8 7 6 6 7 7 7 7 6 6 7 7 7 6 4 4 7 7 5 7
10 9 11 13 17 18 16 16 13 7 8 7 2 3 5 6 4 6 7 8 7 8 11 12 12 11 11 8 7 7 8 6 6 7 7 6 5 7 8 8 10 8 7 6 6 8 8 7 9
12 8 6 14 17 12 11 17 15 9 8 7 3 4 6 6 7 8 11 13 13 12 13 13 10 10 10 9 8 8 7 6 6 7 7 6 6 7 8 9 10 10 9 10 10 11 9 9 9
12 4 6 15 12 10 12 12 5 5 6 7 6 4 7 7 8 9 11 12 11 9 11 11 11 10 9 9 11 10 9 7 6 6 7 7 6 5 6 7 10 11 10 9 10 9 9 9 9
7 4 7 16 10 11 10 8 6 7 7 6 7 5 6 6 7 7 9 10 10 14 13 12 10 9 10 11 11 9 7 8 8 7 7 7 7 7 8 8 9 10 11 11 10 11 11 11 10
7 2 5 10 11 9 7 8 8 8 8 7 5 3 5 6 8 9 10 10 11 11 13 12 11 10 9 9 8 9 9 9 10 9 9 9 9 8 9 9 10 12 14 15 13 12 11 9 9
12 3 8 11 9 10 8 7 4 7 10 9 5 3 6 9 11 11 11 9 9 10 8 9 9 6 7 6 6 8 9 10 11 11 8 7 10 9 8 8 10 11 13 14 13 13 14 14 12
13 9 7 13 12 10 9 7 2 5 8 10 6 2 5 8 9 9 10 9 9 9 7 6 6 5 5 3 4 5 8 10 10 10 8 7 7 8 8 8 9 12 13 14 14 15 16 16 17
12 10 11 11 7 10 8 12 6 6 9 8 6 4 4 7 7 6 7 8 8 7 6 6 6 5 4 1 3 4 4 5 6 7 6 7 8 8 9 11 11 12 13 14 15 16 17 17 18
13 16 14 9 4 7 9 8 7 4 6 11 4 4 5 5 6 5 6 7 7 7 8 8 7 5 4 3 3 1 1 2 4 6 6 7 7 9 10 12 13 14 15 16 16 17 17 17 20
17 14 16 7 5 6 10 8 6 15 12 7 1 5 6 5 5 3 5 6 6 6 5 6 6 5 3 2 1 2 3 4 4 4 4 5 5 7 9 11 12 14 16 17 18 19 19 18 19
25 22 15 12 4 6 4 10 7 11 13 7 5 4 5 7 7 7 7 6 8 8 6 5 4 3 2 2 4 5 5 6 7 8 9 10 10 11 12 13 13 14 15 17 18 20 22 23 21
28 24 17 8 9 15 12 16 5 10 14 9 13 7 8 8 13 12 8 7 8 9 8 7 6 4 4 7 9 10 9 9 10 11 12 14 15 15 16 16 17 17 18 19 20 21 22 23 22
33 26 20 22 19 17 20 22 13 8 11 3 10 8 6 7 7 13 13 11 11 11 11 10 8 8 8 11 13 13 13 13 15 16 16 18 19 21 21 21 21 20 20 21 22 22 23 24 25
35 26 25 26 22 18 23 27 16 16 12 8 7 7 10 12 14 14 15 17 16 16 14 14 13 13 14 15 17 18 19 19 19 21 21 22 22 23 24 23 22 21 21 22 22 23 25 27 26
33 33 35 30 26 30 23 24 20 14 7 14 12 13 13 11 14 16 14 18 20 21 19 16 16 18 19 21 21 24 28 24 24 25 24 22 22 23 23 22 23 23 24 25 25 26 28 30 30
42 41 39 38 36 33 28 29 15 3 7 10 10 13 11 9 10 14 15 12 15 20 24 24 22 24 25 26 24 22 22 23 25 25 23 22 23 23 23 24 26 26 26 26 26 28 30 31 31
44 47 45 39 31 31 32 35 9 6 5 7 10 14 10 6 11 10 24 27 25 21 22 23 19 18 23 22 18 18 19 20 22 23 22 22 23 24 26 25 25 25 25 26 28 30 31 33 34
49 56 46 43 37 36 34 35 29 18 17 18 13 12 7 9 11 14 11 15 20 22 21 19 17 17 17 17 16 18 18 19 21 21 23 23 23 25 27 28 27 27 27 28 30 33 35 35 36
54 52 50 51 45 45 45 45 39 34 22 17 15 15 11 11 12 13 9 12 11 12 14 15 17 18 19 20 21 23 24 27 24 23 24 23 24 27 27 28 28 28 29 30 31 34 36 37 39
55 53 54 48 45 40 37 35 32 35 29 16 18 18 12 12 12 16 14 5 6 5 11 18 21 21 21 24 28 27 29 30 28 27 27 25 27 29 28 28 30 31 32 33 34 36 38 40 41
54 49 48 42 35 33 33 32 31 28 24 17 21 17 13 14 12 11 11 6 3 5 6 11 16 23 27 30 32 32 31 32 32 32 32 30 29 29 31 32 32 32 33 34 37 38 40 41 41
Wind_Direction
75 64 61 60 56 51 63 90 114 103 118 112 122 113 103 99 96 98 102 105 110 111 107 103 103 101 101 96 88 75 73 68 64 67 64 57 57 60 54 46 43 40 37 28 12 7 11 18 67
80 70 62 58 58 58 60 86 88 101 109 113 110 116 113 111 109 101 97 96 100 103 97 93 92 95 91 88 78 69 61 62 62 60 60 59 55 55 53 47 41 40 38 31 20 0 355 29 85
90 69 69 65 60 59 54 61 71 82 91 105 113 119 121 114 108 100 96 95 97 100 103 100 95 92 84 77 69 65 64 63 61 66 62 55 56 54 50 43 40 41 38 31 18 12 359 26 72
99 79 77 89 71 60 70 78 65 65 89 113 110 112 113 122 112 110 110 107 106 103 102 96 87 82 79 76 73 69 66 67 67 63 58 51 46 48 44 41 42 42 39 33 18 11 8 5 44
89 73 66 77 77 61 67 67 53 52 67 89 120 118 118 128 120 118 116 114 115 105 103 96 89 81 79 80 76 77 81 78 72 65 54 50 43 36 30 31 45 55 46 29 19 2 2 3 325
71 51 40 53 74 71 62 67 49 46 55 78 117 118 118 143 128 123 121 120 118 112 101 90 83 77 74 77 76 72 67 62 55 49 41 39 29 17 13 23 31 49 43 21 14 13 2 348 358
74 48 38 42 56 64 60 49 50 56 34 32 99 112 120 169 151 139 142 140 132 120 112 109 102 91 83 73 63 51 39 34 26 23 25 25 14 5 355 358 12 15 42 19 5 0 9 340 329
55 83 57 46 37 41 55 55 40 25 46 49 69 114 114 134 142 147 154 150 142 130 127 128 108 99 89 68 47 36 38 30 16 22 29 45 41 29 19 358 0 348 1 21 336 325 321 319 312
92 100 55 60 47 31 60 58 26 6 36 22 72 83 117 120 134 147 149 151 144 133 125 106 96 92 92 82 77 69 66 57 38 34 40 41 31 31 28 11 359 5 352 355 318 301 291 289 291
128 108 85 64 40 22 43 36 17 10 48 34 32 101 110 124 136 149 151 147 139 121 120 123 116 105 104 102 94 84 70 62 40 35 37 43 22 20 14 5 9 4 344 335 325 303 286 277 276
120 112 61 41 20 23 27 16 5 335 31 44 29 97 97 122 128 138 130 125 125 122 122 131 129 100 98 104 96 90 76 59 42 35 26 30 30 20 17 351 350 339 327 319 321 322 316 301 281
123 60 33 38 28 55 33 7 39 1 46 58 54 51 86 98 120 127 131 127 125 122 125 121 118 120 114 100 84 74 60 45 33 19 9 21 29 30 19 352 340 337 343 340 328 336 332 324 328
98 37 26 60 43 68 42 61 61 42 43 52 56 43 78 85 105 117 115 118 113 114 118 125 122 118 105 83 66 48 42 37 31 21 356 20 27 34 41 30 8 10 22 15 3 355 353 348 340
126 53 350 76 49 42 68 64 50 50 38 39 51 58 94 100 104 111 119 112 110 105 108 107 106 107 96 77 62 50 47 47 49 41 22 27 40 43 52 38 29 22 16 11 6 357 355 357 345
159 248 81 115 72 75 73 43 14 41 54 57 35 128 119 124 121 123 129 130 125 120 108 99 104 105 100 80 46 35 37 51 55 54 45 33 36 44 37 32 22 20 15 12 13 7 7 6 356
184 158 132 118 98 101 73 58 72 22 28 48 25 128 142 132 126 123 130 140 134 135 135 128 117 125 118 80 42 37 37 36 38 45 47 44 39 30 13 11 11 5 7 7 2 359 359 359 353
219 166 152 132 110 104 84 38 29 28 15 353 15 354 212 157 136 126 134 142 147 153 150 142 131 132 122 87 20 60 60 39 28 22 32 31 17 8 359 353 348 347 346 347 348 348 346 342 338
240 154 157 166 176 80 38 23 41 3 317 334 321 318 305 219 189 157 156 158 159 151 138 138 132 123 105 117 107 105 72 49 14 25 19 11 2 350 342 338 337 334 334 333 329 329 331 332 327
220 195 150 183 119 73 19 338 8 5 349 321 300 262 248 271 259 215 194 183 163 155 142 134 134 118 121 94 57 339 317 306 314 332 333 335 330 326 326 325 330 328 327 326 322 322 321 320 318
225 205 168 191 177 237 281 299 344 343 343 318 299 298 251 249 251 249 219 195 172 165 165 169 150 165 229 307 335 333 322 313 311 309 312 318 319 318 317 317 314 308 311 313 318 320 321 321 316
222 208 181 203 240 259 248 251 350 323 327 293 342 312 269 271 275 238 248 236 198 188 188 204 209 227 282 300 310 310 311 311 309 310 310 314 316 317 315 309 306 310 312 315 317 320 320 317 314
217 201 189 227 236 260 277 275 276 299 302 243 313 334 278 289 279 249 240 242 235 214 217 225 235 251 268 278 288 294 301 305 306 302 304 310 315 316 314 314 314 313 315 313 312 316 319 318 315
204 195 207 221 245 253 262 262 256 254 268 314 299 310 323 301 274 286 255 239 240 238 229 238 246 256 263 268 280 291 297 300 299 298 299 303 309 311 312 311 311 309 308 308 312 316 319 315 313
200 202 209 216 229 247 249 251 256 254 269 291 297 289 315 294 280 290 256 240 239 246 243 240 252 262 268 273 284 292 288 293 291 289 290 297 306 310 310 309 310 310 309 311 313 315 317 317 314
208 202 213 218 221 242 245 243 242 283 347 304 276 272 298 297 298 264 247 230 253 253 251 256 262 271 278 279 283 281 279 284 288 288 292 302 305 307 312 315 313 309 307 307 309 313 315 311 312
208 203 215 223 233 243 247 246 206 263 273 242 239 269 292 314 343 316 255 251 256 259 267 268 273 280 280 283 287 287 279 278 285 290 297 301 306 312 312 308 304 301 300 304 308 311 312 313 315
209 208 214 223 227 239 249 251 247 251 244 259 252 260 280 281 329 323 302 236 236 247 264 278 286 287 284 294 300 298 299 296 295 298 300 302 305 307 307 304 303 301 302 304 308 312 314 315 316
210 211 215 223 231 234 239 241 243 244 233 249 242 258 274 296 330 328 297 230 227 251 270 281 286 291 294 298 297 299 304 296 295 298 301 301 302 302 299 299 302 300 298 300 305 309 312 313 313
214 216 219 226 235 244 252 233 230 234 237 252 250 261 266 269 307 313 320 262 238 273 292 291 289 285 285 285 284 288 292 297 299 298 298 298 297 292 294 297 300 301 302 302 305 308 310 311 313
216 220 221 226 235 243 241 236 233 237 242 232 245 258 256 270 294 308 318 289 250 353 312 326 309 288 278 277 282 289 292 294 295 293 293 293 294 293 298 303 306 306 303 303 306 310 311 313 315